Temperature
3 4 4 5 6 6 6 7 7 8 8 10 10 10 11 12 12 13 14 15 16 16 17 17 17 17 17 17 16 15 15 14 13 13 12 12 11 11 10 10 10 10 10 9
3 4 5 5 6 7 7 7 7 8 8 9 10 10 10 11 12 12 13 14 15 16 16 17 17 17 17 16 16 15 15 14 13 12 12 11 10 10 10 10 10 9 9 9
2 4 4 4 6 7 7 8 8 8 9 8 9 9 9 11 12 12 13 14 15 15 16 16 17 17 16 16 15 15 14 13 13 12 11 11 10 10 10 10 9 9 9 9
2 3 3 5 6 7 7 7 8 8 8 8 9 10 11 12 12 13 13 13 14 15 15 16 16 16 16 16 15 15 14 13 12 11 11 10 10 9 9 9 9 9 9 8
1 2 3 4 5 6 6 6 7 7 7 8 9 9 10 12 12 12 13 13 14 14 15 15 16 16 16 15 15 14 14 13 12 11 11 10 9 9 9 9 9 9 8 8
1 2 3 5 5 6 6 6 6 6 6 6 7 7 9 11 11 12 12 13 13 14 14 15 15 15 15 15 15 14 14 13 12 11 10 10 9 9 9 8 8 8 8 8
0 1 3 4 4 6 5 5 6 6 6 6 6 8 9 10 11 11 12 12 13 13 13 14 15 15 15 15 15 14 13 12 12 11 10 9 9 9 8 8 8 8 7 7
0 1 2 3 4 4 4 5 5 5 6 6 7 8 8 9 10 11 11 12 12 12 13 13 14 14 14 15 14 14 13 12 11 11 10 9 8 8 8 7 7 7 7 7
0 2 3 3 4 5 5 5 5 5 6 6 6 7 7 8 9 10 10 11 11 12 12 13 13 13 14 14 14 13 13 12 11 10 9 9 8 8 7 7 7 7 7 6
-0 1 2 3 4 4 4 5 5 5 6 6 6 6 6 7 8 9 10 10 11 11 11 12 12 13 13 13 13 12 12 11 10 10 9 8 8 7 7 7 6 6 6 6
-1 1 2 3 4 4 4 4 5 5 6 6 6 6 6 7 8 8 9 10 10 10 11 11 12 12 12 12 12 12 11 10 10 9 8 8 7 7 7 7 6 6 6 5
0 1 1 2 3 4 4 4 4 5 5 6 6 6 6 7 7 8 9 9 10 10 10 11 11 11 11 11 11 11 10 10 9 9 8 7 7 6 6 6 5 5 5 5
1 1 1 2 2 3 3 4 4 4 5 5 6 6 6 7 7 8 8 9 9 10 10 10 10 10 10 10 10 10 10 10 9 8 8 7 6 6 5 5 4 4 4 4
0 0 0 1 2 2 3 3 4 4 5 5 6 6 6 7 7 7 8 8 9 9 9 9 9 9 9 9 9 9 9 9 9 8 7 7 6 6 5 5 4 4 4 3
-0 -0 0 1 1 2 2 3 3 4 4 5 5 6 6 6 7 7 7 8 8 8 8 8 8 9 9 9 8 8 8 8 7 7 6 6 5 5 4 4 4 3 3 3
-1 -1 -0 0 1 1 1 2 2 3 4 4 5 5 6 6 6 7 7 7 7 7 7 8 8 8 8 8 8 7 7 7 7 6 6 5 5 4 4 3 3 3 2 2
-2 -2 -1 -1 -0 0 1 1 2 3 3 4 4 5 5 5 6 6 6 6 6 7 7 7 7 7 7 7 7 7 6 6 6 5 5 5 4 4 3 3 3 2 2 1
-3 -2 -2 -1 -1 -0 0 1 2 2 3 3 4 4 4 5 5 5 5 5 6 6 6 6 6 6 6 6 6 6 6 5 5 4 4 4 3 3 3 2 2 1 1 0
-3 -3 -2 -2 -1 -0 0 1 2 2 3 3 3 4 4 4 4 5 5 5 5 5 5 5 5 5 5 5 5 5 5 4 4 4 3 3 3 2 2 2 1 1 0 0
-3 -3 -2 -2 -1 -1 0 1 2 2 2 2 3 3 3 3 3 4 4 4 4 5 5 4 4 4 4 4 4 4 4 3 3 3 2 2 2 2 1 1 1 0 -0 -1
-3 -3 -2 -2 -1 -1 0 1 1 2 2 2 2 2 2 2 3 3 4 3 3 3 3 3 3 3 3 3 3 3 3 2 2 2 2 2 1 1 1 0 -0 -0 -1 -1
-4 -3 -3 -2 -2 -1 -0 0 1 1 1 1 2 2 2 2 2 2 2 2 2 2 2 2 2 2 2 2 2 2 2 2 2 2 1 1 1 0 -0 -0 -1 -1 -2 -2
-4 -4 -3 -3 -2 -2 -1 -1 -0 0 0 0 1 1 1 1 1 2 1 1 1 1 1 1 1 1 1 1 1 1 1 1 1 1 0 0 -0 -1 -1 -1 -2 -2 -2 -3
-5 -4 -4 -3 -3 -3 -2 -2 -1 -1 -1 -1 -0 -0 0 0 -0 0 0 -0 -0 0 0 0 0 0 1 1 1 0 0 0 -0 -0 -1 -1 -1 -2 -2 -2 -3 -3 -3 -4
-6 -5 -5 -4 -4 -4 -3 -3 -3 -2 -2 -2 -2 -2 -1 -1 -1 -1 -1 -1 -1 -1 -1 -1 -1 -0 -0 -0 -0 -1 -1 -1 -1 -1 -2 -2 -2 -3 -3 -3 -3 -4 -4 -4
-6 -6 -6 -5 -5 -5 -4 -4 -4 -4 -3 -3 -3 -3 -3 -2 -2 -2 -2 -2 -2 -2 -2 -2 -2 -1 -1 -1 -1 -2 -2 -2 -2 -2 -3 -3 -3 -3 -4 -4 -4 -4 -4 -5
-7 -7 -7 -7 -6 -6 -6 -5 -5 -5 -5 -4 -4 -4 -4 -3 -3 -3 -3 -3 -3 -3 -2 -3 -3 -3 -2 -2 -3 -3 -3 -3 -3 -3 -4 -4 -4 -4 -4 -5 -5 -5 -5 -5
Wind_Speed
8 8 7 9 13 14 12 11 12 13 12 10 8 7 5 3 3 2 3 3 4 4 4 4 4 5 5 6 7 8 10 11 11 11 11 11 12 13 13 13 13 13 13 12
6 7 8 10 14 17 18 17 16 14 14 9 6 4 3 3 2 3 4 5 5 5 4 5 6 6 6 6 7 9 10 10 9 10 10 11 11 12 12 12 12 12 12 12
5 5 6 10 12 15 15 16 18 19 14 3 5 6 7 6 5 6 6 6 6 6 7 7 7 7 7 7 7 9 9 9 9 10 10 10 10 11 12 12 11 11 11 11
4 2 8 7 4 6 10 10 11 10 5 5 7 8 8 6 5 5 6 6 7 6 6 6 5 5 6 6 8 9 9 9 9 10 10 10 10 11 11 10 10 11 10 11
3 4 7 7 3 5 8 9 6 7 5 5 5 5 7 6 4 7 7 7 7 7 6 5 5 6 7 7 7 9 9 10 10 10 10 10 11 11 8 9 9 9 9 10
4 4 6 4 5 4 5 7 4 4 4 3 1 5 9 6 6 8 8 6 5 4 3 4 4 7 9 8 9 10 10 9 9 10 11 11 10 9 7 8 9 9 8 8
7 6 7 6 5 2 4 5 5 5 5 5 7 12 9 6 7 8 8 6 5 3 4 4 5 7 8 8 10 9 8 8 9 9 10 10 9 8 9 8 9 8 8 6
5 7 7 3 2 2 4 5 5 6 6 7 11 12 8 7 7 6 6 5 4 3 4 3 5 7 8 9 7 7 9 9 9 9 8 8 10 9 9 10 9 8 7 6
7 7 5 3 5 6 4 6 7 7 8 8 10 10 9 8 7 6 6 5 4 4 3 2 4 7 9 7 8 9 10 10 9 9 8 9 10 10 9 8 7 7 7 6
6 8 9 9 8 8 7 9 10 9 9 8 9 10 9 8 6 6 5 4 3 3 3 3 3 5 7 7 9 10 11 10 10 10 9 8 7 8 8 8 8 7 7 6
8 10 10 9 8 9 10 10 10 11 9 8 8 10 9 8 7 6 5 3 3 4 4 4 3 4 6 8 10 11 10 10 10 9 10 8 7 6 7 6 8 9 8 7
10 8 8 11 12 12 12 13 12 11 11 10 7 9 8 7 5 4 4 3 2 2 3 3 4 4 5 7 10 12 10 10 9 9 8 8 8 6 7 7 9 10 9 8
13 13 14 15 16 14 13 13 12 11 11 11 9 8 7 6 4 3 3 3 3 3 3 3 4 5 5 7 9 10 11 10 9 9 9 9 8 9 7 7 9 9 10 9
13 11 13 13 14 15 13 13 11 10 9 9 8 6 5 4 3 3 3 3 2 3 3 4 5 5 5 7 9 10 10 10 10 9 9 8 8 8 8 8 6 4 5 8
12 11 14 15 14 13 12 10 9 9 8 7 6 5 5 4 4 3 2 2 3 4 4 4 5 5 5 8 10 11 10 8 8 8 8 8 8 7 7 7 7 5 4 4
13 12 12 13 14 13 12 10 10 10 8 7 6 5 4 3 2 2 2 3 5 5 4 5 5 5 6 9 11 9 8 12 11 9 8 8 8 8 7 7 6 6 5 4
13 13 12 12 13 13 13 12 11 10 8 7 6 4 3 3 3 2 2 2 3 3 3 5 6 6 7 9 10 9 9 10 12 9 8 8 7 7 7 7 6 5 4 5
14 15 15 14 13 14 13 12 10 9 8 6 4 4 5 6 5 5 4 5 6 5 4 4 6 7 8 9 9 8 8 8 7 8 8 7 7 7 7 6 6 6 4 4
13 14 14 13 13 12 12 10 9 7 6 5 5 5 4 4 5 5 6 7 7 5 3 5 11 9 9 9 10 8 9 9 8 7 7 9 8 6 6 6 6 5 5 4
12 12 12 11 10 9 9 7 5 4 4 5 5 5 5 4 5 6 6 5 2 3 6 8 9 8 9 9 11 8 9 9 9 8 7 7 7 6 6 6 6 5 4 4
11 10 9 8 6 5 5 4 3 3 3 5 6 6 6 5 5 6 7 6 3 6 8 11 8 7 8 9 11 8 9 9 8 7 7 7 7 6 6 5 5 4 4 4
9 8 7 5 3 3 2 1 3 4 4 5 6 7 8 8 7 6 6 5 6 9 8 7 7 10 11 11 8 8 8 8 7 7 6 6 6 6 5 5 4 4 4 3
8 6 5 3 2 2 4 4 4 5 6 6 7 8 8 7 6 7 7 5 6 10 8 7 11 15 15 9 8 8 8 8 7 6 6 6 5 5 5 4 4 3 3 3
7 6 4 3 4 5 6 5 6 7 8 7 7 7 8 8 7 6 7 11 12 13 9 11 15 15 13 8 8 8 7 7 6 6 6 5 5 4 4 4 3 2 2 2
6 5 5 5 5 5 6 7 8 9 9 8 9 9 7 7 8 8 9 10 14 13 10 12 15 14 10 8 8 7 6 6 6 6 5 5 4 4 3 3 3 2 2 2
6 5 5 5 5 5 5 6 6 7 7 8 8 8 8 9 10 10 9 11 12 13 10 8 9 10 8 8 8 7 6 6 6 5 5 4 4 3 3 2 2 2 2 2
6 6 6 6 6 6 6 7 7 7 7 8 9 8 9 9 9 10 11 9 9 9 9 8 8 7 7 7 7 6 5 5 5 4 4 3 3 2 2 2 1 1 1 2
Wind_Direction
268 272 254 245 229 218 218 219 220 231 231 245 249 248 250 248 253 252 238 225 224 223 218 207 201 193 185 182 174 171 176 184 190 186 182 180 180 180 180 181 183 181 181 182
271 266 257 261 239 224 223 224 230 241 243 238 246 247 246 232 225 248 255 247 238 231 223 218 209 198 188 184 179 173 180 185 180 175 175 178 178 176 175 177 177 176 180 180
256 271 276 249 226 215 216 218 219 231 235 216 236 247 247 234 226 235 247 251 245 235 227 225 215 197 192 184 174 176 181 178 174 173 175 176 172 172 175 176 173 174 176 177
260 245 231 238 213 223 228 231 226 237 244 211 232 240 240 225 223 241 251 254 255 251 244 232 208 186 170 163 170 176 178 177 173 171 172 168 169 174 173 171 173 174 175 177
233 246 267 282 259 211 217 234 239 249 255 247 252 249 251 246 235 240 241 242 241 240 240 224 196 174 156 161 169 176 182 181 176 171 169 168 171 172 166 165 166 168 169 171
221 231 242 264 298 290 212 238 267 257 266 264 180 234 251 262 259 261 262 257 250 247 236 214 196 165 161 169 176 188 188 179 171 168 169 170 170 162 154 157 160 157 158 166
220 238 261 279 309 72 183 248 291 264 254 235 221 238 261 256 252 251 254 252 240 225 222 218 186 167 171 176 192 188 168 159 161 165 166 162 155 150 149 146 145 148 150 154
204 223 246 300 39 171 264 294 301 289 267 254 252 258 268 254 249 250 253 248 229 220 233 213 177 171 178 192 183 155 151 154 156 158 155 150 147 146 147 147 147 148 147 145
209 230 261 255 245 256 267 282 288 289 288 280 277 275 273 264 253 250 246 243 232 214 224 218 186 180 185 186 155 148 149 152 151 148 148 150 150 150 148 149 151 153 153 157
252 261 270 273 275 278 276 279 283 284 286 279 278 279 276 269 257 250 247 240 227 200 203 226 206 188 181 163 153 149 151 152 150 149 146 144 145 150 154 158 157 156 158 161
255 269 283 275 267 276 285 287 289 290 283 272 271 279 277 272 260 248 245 239 217 203 205 214 191 177 165 156 149 147 148 149 148 148 147 144 141 149 155 164 166 162 169 167
253 258 266 276 282 282 281 284 285 288 293 291 272 273 276 269 256 241 232 230 212 199 186 185 169 167 163 155 151 148 149 151 151 149 147 144 138 118 109 126 138 142 150 154
257 270 271 274 280 278 277 280 281 278 277 284 283 273 266 264 254 226 212 210 201 195 180 167 159 161 163 154 150 151 152 152 150 149 149 148 146 143 131 103 111 125 134 140
263 269 272 272 276 280 280 281 285 284 279 274 277 271 252 251 244 222 212 205 179 157 154 155 151 159 160 147 142 142 142 146 146 148 148 148 148 147 146 144 138 117 122 135
266 261 263 274 279 281 280 279 282 283 283 285 279 259 232 217 221 219 198 165 144 137 144 145 145 153 146 139 138 138 138 141 139 138 138 139 138 137 138 138 140 136 120 127
285 281 274 273 275 278 278 274 271 273 275 276 271 255 236 207 193 182 176 169 156 156 158 147 146 149 138 133 130 128 131 135 135 136 135 135 136 138 140 140 141 144 146 145
283 282 281 283 278 276 273 269 265 263 266 263 254 227 186 161 155 151 137 123 125 127 136 139 140 136 131 131 128 129 129 133 131 130 134 137 139 141 143 144 146 146 149 157
267 269 272 272 273 273 272 269 263 256 253 250 231 196 184 177 173 164 145 126 108 91 85 115 124 120 116 120 122 125 126 128 130 131 131 133 133 135 137 139 142 141 140 144
279 276 276 274 270 268 267 265 257 247 236 221 203 193 184 168 160 156 144 133 130 126 123 122 124 116 115 120 119 119 122 123 121 121 123 129 125 127 132 136 140 143 146 146
289 284 281 281 278 269 264 260 246 227 216 194 176 162 155 150 147 142 127 116 118 137 133 124 118 115 114 118 116 118 122 124 125 125 124 127 129 130 132 135 140 143 146 150
299 292 288 287 287 283 266 243 207 193 183 165 162 160 151 138 136 133 124 115 103 117 121 123 118 117 115 120 115 116 119 122 125 128 129 129 129 131 133 136 139 144 148 150
309 302 298 298 307 315 316 182 155 149 138 134 135 135 132 129 122 106 94 117 127 122 117 115 115 120 123 117 112 115 117 120 121 123 125 128 131 134 136 138 142 146 149 154
318 317 320 325 351 32 52 67 97 113 119 126 130 130 127 125 125 123 116 116 121 117 111 112 121 121 117 110 111 112 114 115 118 120 122 124 128 133 137 139 143 147 154 165
336 344 355 15 51 69 68 65 78 88 91 91 92 101 111 110 92 83 105 117 115 107 103 111 114 113 107 104 105 106 109 111 113 114 114 115 119 126 133 139 144 153 165 174
354 7 23 45 63 71 78 82 83 84 86 85 80 76 79 89 101 104 102 103 106 101 101 102 100 97 93 96 98 101 103 110 114 115 115 118 123 126 131 139 149 157 167 185
7 20 34 45 58 72 82 87 88 88 91 92 84 81 84 88 94 96 96 93 94 95 92 88 88 87 87 90 93 96 99 102 100 103 112 116 121 125 130 135 144 164 184 207
23 34 46 51 53 58 68 76 82 84 88 95 94 88 89 90 92 93 93 91 88 85 83 81 80 81 84 86 88 90 91 92 95 100 105 108 114 121 130 140 161 188 214 233
Height
1377 1373 1373 1371 1370 1372 1375 1374 1376 1368 1367 1361 1359 1358 1357 1357 1357 1358 1359 1361 1363 1366 1368 1371 1374 1376 1379 1382 1385 1388 1391 1394 1398 1403 1407 1412 1417 1422 1427 1433 1438 1443 1447 1452
1376 1370 1369 1368 1364 1364 1365 1366 1366 1363 1361 1356 1355 1355 1355 1355 1356 1357 1358 1360 1362 1364 1366 1369 1371 1374 1377 1379 1382 1385 1388 1391 1395 1399 1403 1407 1412 1417 1422 1427 1433 1437 1442 1446
1376 1370 1367 1365 1355 1354 1355 1353 1354 1354 1350 1355 1355 1355 1355 1355 1355 1356 1357 1359 1360 1362 1364 1366 1369 1371 1374 1376 1379 1382 1384 1388 1391 1395 1399 1403 1408 1413 1417 1422 1427 1432 1436 1441
1377 1372 1372 1355 1348 1350 1349 1348 1348 1347 1349 1351 1351 1351 1351 1351 1352 1353 1355 1356 1358 1359 1361 1363 1366 1368 1371 1373 1376 1378 1381 1384 1387 1391 1395 1399 1404 1408 1413 1418 1422 1427 1431 1435
1377 1372 1363 1352 1348 1347 1347 1346 1346 1346 1347 1348 1348 1348 1347 1347 1349 1350 1352 1353 1355 1356 1358 1360 1362 1364 1367 1369 1372 1375 1378 1381 1384 1387 1391 1395 1400 1404 1409 1413 1418 1422 1427 1431
1377 1371 1360 1349 1344 1341 1344 1346 1344 1345 1345 1347 1347 1349 1343 1343 1345 1346 1347 1349 1350 1352 1353 1355 1358 1360 1362 1365 1368 1370 1374 1377 1381 1384 1388 1392 1396 1400 1405 1410 1414 1418 1422 1426
1374 1369 1356 1347 1342 1341 1349 1345 1341 1341 1341 1343 1343 1341 1339 1340 1340 1341 1343 1344 1345 1346 1348 1350 1353 1355 1357 1360 1363 1367 1370 1374 1377 1381 1385 1389 1393 1397 1402 1406 1410 1414 1418 1422
1369 1366 1357 1344 1343 1346 1345 1341 1339 1337 1336 1336 1335 1334 1335 1335 1335 1336 1337 1338 1340 1341 1342 1345 1348 1350 1352 1356 1359 1363 1366 1370 1373 1377 1381 1385 1389 1394 1398 1402 1407 1410 1414 1418
1360 1354 1345 1342 1342 1341 1340 1339 1336 1334 1332 1331 1330 1329 1329 1329 1329 1330 1332 1333 1334 1336 1337 1339 1342 1345 1348 1351 1355 1358 1362 1365 1370 1374 1378 1382 1386 1390 1394 1399 1403 1406 1410 1413
1354 1346 1342 1339 1338 1337 1336 1335 1333 1330 1328 1327 1325 1324 1323 1323 1323 1324 1326 1327 1329 1330 1332 1334 1337 1340 1343 1347 1350 1354 1357 1361 1366 1370 1374 1379 1383 1387 1391 1394 1398 1402 1405 1409
1349 1344 1340 1334 1334 1333 1332 1330 1328 1325 1324 1322 1320 1318 1318 1317 1317 1318 1320 1321 1324 1325 1327 1329 1332 1335 1339 1343 1346 1350 1354 1358 1362 1367 1371 1375 1380 1384 1388 1391 1395 1398 1401 1405
1343 1339 1339 1332 1329 1329 1327 1324 1322 1320 1317 1316 1315 1314 1313 1312 1313 1314 1315 1317 1319 1321 1323 1325 1328 1331 1335 1339 1342 1346 1350 1354 1359 1363 1368 1372 1376 1381 1385 1389 1392 1396 1399 1402
1335 1333 1332 1327 1324 1323 1322 1319 1317 1316 1313 1311 1310 1310 1309 1308 1309 1311 1312 1314 1316 1317 1320 1322 1325 1328 1331 1335 1339 1343 1347 1351 1355 1360 1365 1369 1373 1377 1381 1386 1389 1392 1395 1398
1329 1328 1324 1320 1319 1316 1315 1313 1312 1310 1308 1307 1306 1306 1305 1305 1306 1307 1309 1311 1313 1315 1317 1320 1322 1325 1329 1332 1336 1341 1345 1349 1353 1357 1362 1366 1370 1374 1378 1381 1385 1388 1392 1394
1321 1320 1318 1314 1312 1310 1309 1307 1306 1304 1303 1302 1302 1302 1302 1302 1303 1305 1307 1309 1311 1313 1315 1317 1319 1323 1326 1330 1334 1338 1342 1346 1351 1355 1360 1364 1368 1372 1375 1379 1382 1385 1388 1391
1313 1312 1310 1308 1305 1303 1302 1301 1300 1298 1298 1298 1298 1298 1299 1300 1301 1302 1305 1307 1309 1310 1313 1315 1318 1321 1324 1328 1332 1336 1341 1345 1349 1353 1357 1361 1365 1369 1372 1376 1379 1382 1384 1387
1308 1304 1302 1300 1298 1297 1296 1295 1294 1293 1293 1293 1293 1294 1296 1297 1298 1300 1302 1305 1308 1309 1312 1314 1317 1320 1323 1327 1331 1335 1339 1343 1347 1351 1355 1359 1362 1366 1370 1373 1376 1379 1382 1384
1300 1298 1296 1294 1292 1290 1288 1288 1287 1287 1287 1288 1290 1291 1292 1294 1295 1297 1300 1303 1305 1308 1311 1313 1316 1319 1323 1327 1330 1334 1338 1342 1346 1349 1353 1357 1360 1364 1367 1371 1373 1376 1379 1381
1291 1289 1287 1285 1284 1283 1281 1281 1280 1280 1282 1284 1285 1287 1289 1291 1294 1296 1298 1301 1304 1306 1310 1313 1316 1319 1323 1326 1330 1333 1337 1341 1344 1348 1352 1355 1359 1362 1365 1368 1371 1374 1376 1378
1282 1280 1278 1276 1275 1275 1274 1274 1274 1275 1277 1279 1281 1283 1286 1289 1292 1294 1296 1299 1302 1305 1309 1312 1316 1319 1322 1326 1329 1333 1336 1340 1343 1347 1350 1353 1357 1360 1363 1366 1368 1371 1373 1375
1276 1274 1272 1270 1269 1269 1269 1269 1270 1271 1273 1275 1278 1280 1283 1286 1290 1292 1295 1298 1302 1306 1309 1312 1315 1318 1322 1326 1329 1333 1336 1339 1343 1346 1349 1352 1355 1358 1361 1363 1366 1368 1370 1371
1272 1269 1267 1266 1265 1265 1265 1266 1267 1269 1271 1273 1276 1278 1281 1284 1288 1291 1295 1298 1301 1305 1308 1312 1315 1319 1322 1326 1329 1332 1336 1339 1342 1345 1348 1350 1353 1356 1358 1361 1363 1365 1367 1368
1269 1267 1265 1264 1263 1263 1263 1264 1266 1268 1269 1272 1274 1277 1280 1283 1287 1290 1294 1299 1302 1305 1309 1312 1316 1319 1323 1326 1329 1332 1335 1338 1341 1344 1347 1349 1352 1354 1357 1359 1361 1362 1364 1365
1267 1265 1264 1263 1262 1262 1262 1264 1265 1267 1269 1271 1274 1277 1280 1283 1287 1291 1295 1299 1302 1306 1310 1313 1317 1320 1323 1326 1329 1332 1335 1337 1340 1343 1345 1348 1350 1353 1355 1356 1358 1359 1361 1362
1268 1265 1264 1263 1262 1262 1263 1264 1266 1267 1270 1272 1275 1279 1282 1285 1288 1292 1296 1300 1304 1307 1311 1314 1317 1320 1323 1326 1328 1331 1334 1337 1340 1342 1344 1347 1349 1351 1352 1354 1355 1357 1358 1359
1270 1268 1266 1265 1265 1265 1266 1266 1267 1269 1272 1274 1278 1281 1284 1288 1291 1295 1298 1302 1306 1309 1312 1314 1317 1320 1323 1326 1329 1332 1334 1337 1339 1341 1343 1345 1347 1349 1350 1351 1353 1354 1355 1355
1272 1270 1269 1268 1268 1269 1269 1269 1271 1273 1276 1278 1280 1284 1288 1291 1294 1298 1301 1304 1307 1310 1313 1316 1319 1321 1324 1327 1329 1332 1334 1336 1338 1340 1342 1344 1345 1346 1348 1349 1350 1350 1351 1352